GEFSGL_con_prob3kmehi_240.txt.gz
EHI
18 17 17 16 15 13 11 8 6 6 6 4 1 1 2 3 3 3 2 1 0 0 0 0 0 0 0 0 0 0 0 0 0 0 0 0 0 0 0 0 0 0 0
22 20 19 18 16 14 12 9 7 6 5 3 1 1 2 3 3 3 2 1 0 0 0 0 0 0 0 0 0 0 0 0 0 0 0 0 0 0 0 0 0 0 0
27 25 22 21 19 16 13 11 8 5 3 2 1 1 2 3 3 2 1 1 0 0 0 0 1 1 0 0 0 0 0 0 0 0 0 0 0 0 0 0 0 0 0
31 28 25 24 22 17 13 11 8 5 2 1 0 1 2 3 3 1 1 1 0 0 0 1 2 2 1 0 0 0 0 0 0 0 0 0 0 0 0 0 0 0 0
34 30 27 25 24 20 15 12 10 6 2 0 0 1 3 3 2 1 0 0 0 0 0 1 2 2 1 0 0 0 0 0 0 0 0 0 0 0 0 0 0 0 0
34 31 28 27 26 23 19 15 12 6 2 0 1 3 3 3 2 1 0 0 0 0 0 0 1 1 1 0 0 0 0 0 0 0 0 0 0 0 0 0 0 0 0
34 32 30 29 27 25 22 19 14 8 3 2 3 4 3 1 1 0 0 0 0 0 0 0 0 0 0 0 0 0 0 0 0 0 0 0 0 0 0 0 0 0 0
36 34 32 30 27 25 22 19 15 10 5 4 4 5 3 1 0 0 0 0 0 0 0 0 0 0 0 0 0 0 0 0 0 0 0 0 0 0 0 0 0 0 0
39 37 34 31 29 27 23 18 14 11 7 4 3 3 1 0 0 0 0 0 0 0 0 0 0 0 0 0 0 0 0 0 0 0 0 0 0 0 0 0 0 0 0
41 39 37 34 32 31 26 20 15 10 6 3 1 1 0 0 0 0 0 0 0 0 0 0 0 0 0 0 0 0 0 0 0 0 0 0 0 0 0 0 0 0 0
43 42 39 36 34 31 27 21 14 8 5 3 1 0 0 0 0 0 0 0 0 0 0 0 0 0 0 0 0 0 0 0 0 0 0 0 0 0 0 0 0 0 0
45 44 40 36 34 30 24 19 12 8 5 3 1 0 0 0 0 0 0 0 0 0 0 0 0 0 0 0 0 0 0 0 0 0 0 0 0 0 0 0 0 0 0
47 44 40 38 34 28 21 17 12 9 6 4 2 1 0 0 0 0 0 0 0 0 0 0 0 0 0 0 0 0 0 0 0 0 0 0 0 0 0 0 0 0 0
45 43 40 38 33 26 21 18 15 11 7 5 3 1 0 0 0 0 0 0 0 0 0 0 0 0 0 0 0 0 0 0 0 0 0 0 0 0 0 0 0 0 0
40 40 38 36 32 26 22 18 14 10 7 4 2 1 0 0 0 0 0 0 0 0 0 0 0 0 0 0 0 0 0 0 0 0 0 0 0 0 0 0 0 0 0
37 37 36 34 30 26 23 17 10 6 4 2 1 0 0 0 0 0 0 0 0 0 0 0 0 0 0 0 0 0 0 0 0 0 0 0 0 0 0 0 0 0 0
35 35 34 30 27 25 23 18 11 6 2 1 0 0 0 0 0 0 0 0 0 0 0 0 0 0 0 0 0 0 0 0 0 0 0 0 0 0 0 0 0 0 0
34 33 31 28 25 24 23 19 14 8 5 2 1 0 0 0 0 0 0 0 0 0 0 0 0 0 0 0 0 0 0 0 0 0 0 0 0 0 0 0 0 0 0
31 29 27 26 23 22 21 19 15 10 7 4 2 1 0 0 0 0 0 0 0 0 0 0 0 0 0 0 0 0 0 0 0 0 0 0 0 0 0 0 0 0 0
27 23 21 21 21 19 17 16 16 13 8 5 3 1 0 0 0 0 0 0 0 0 0 0 0 0 0 0 0 0 0 0 0 0 0 0 0 0 0 0 0 0 0
23 19 16 18 18 17 14 13 14 14 10 6 4 1 0 0 0 0 0 0 0 0 0 0 0 0 0 0 0 0 0 0 0 0 0 0 0 0 0 0 0 0 0
21 19 17 17 17 15 12 10 10 11 10 7 4 1 0 0 0 0 0 0 0 0 0 0 0 0 0 0 0 0 0 0 0 0 0 0 0 0 0 0 0 0 0
21 18 17 16 15 13 10 8 7 8 7 6 3 2 0 0 0 0 0 0 0 0 0 0 0 0 0 0 0 0 0 0 0 0 0 0 0 0 0 0 0 0 0
20 17 15 14 12 10 8 5 4 5 5 4 2 1 0 0 0 0 0 0 0 0 0 0 0 0 0 0 0 0 0 0 0 0 0 0 0 0 0 0 0 0 0
18 16 14 13 11 9 7 4 3 4 4 4 2 1 0 0 0 0 0 0 0 0 0 0 0 0 0 0 0 0 0 0 0 0 0 0 0 0 0 0 0 0 0
16 16 14 13 11 8 6 4 3 3 5 5 3 1 0 0 0 0 0 0 0 0 0 0 0 0 0 0 0 0 0 0 0 0 0 0 0 0 0 0 0 0 0

GEFSGL_con_prob3kmehi_246.txt.gz
EHI
4 4 4 4 4 3 2 1 1 0 0 0 0 0 0 0 1 2 1 0 0 0 0 0 0 0 0 0 0 0 0 0 0 0 0 0 0 0 0 0 0 0 0
4 5 6 7 7 7 5 3 2 1 0 0 0 0 0 0 1 1 1 0 0 0 0 0 0 0 0 0 0 0 0 0 0 0 0 0 0 0 0 0 0 0 0
8 10 11 11 12 12 9 6 3 2 1 0 0 0 0 0 1 1 0 0 0 0 0 0 0 0 0 0 0 0 0 0 0 0 0 0 0 0 0 0 0 0 0
14 15 14 13 13 13 11 7 4 2 1 0 0 0 0 0 1 0 0 0 1 0 0 0 0 0 0 0 0 0 0 0 0 0 0 0 0 0 0 0 0 0 0
17 17 15 14 13 13 12 8 5 2 0 0 0 0 0 1 1 0 0 1 1 0 0 0 0 0 0 0 0 0 0 0 0 0 0 0 0 0 0 0 0 0 0
16 16 15 14 13 12 12 9 6 3 1 0 0 0 0 1 0 0 0 1 0 0 0 0 0 0 0 0 0 0 0 0 0 0 0 0 0 0 0 0 0 0 0
15 15 15 14 13 12 12 11 9 6 3 1 1 0 0 0 0 0 0 0 0 0 0 0 0 0 0 0 0 0 0 0 0 0 0 0 0 0 0 0 0 0 0
18 18 19 18 15 15 13 11 10 8 6 4 2 1 1 0 0 0 0 0 0 0 0 0 0 0 0 0 0 0 0 0 0 0 0 0 0 0 0 0 0 0 0
20 21 23 21 19 17 14 11 10 9 7 6 4 2 1 0 0 0 0 0 0 0 0 0 0 0 0 0 0 0 0 0 0 0 0 0 0 0 0 0 0 0 0
20 21 23 23 22 18 13 10 9 8 7 6 4 2 1 0 0 0 0 0 0 0 0 0 0 0 0 0 0 0 0 0 0 0 0 0 0 0 0 0 0 0 0
21 21 21 22 23 18 11 8 8 7 7 6 5 2 0 0 0 0 0 0 0 0 0 0 0 0 0 0 0 0 0 0 0 0 0 0 0 0 0 0 0 0 0
24 21 18 19 20 16 10 6 6 6 6 6 5 2 0 0 0 0 0 0 0 0 0 0 0 0 0 0 0 0 0 0 0 0 0 0 0 0 0 0 0 0 0
24 20 17 16 15 13 9 7 7 8 7 7 6 4 2 0 0 0 0 0 0 0 0 0 0 0 0 0 0 0 0 0 0 0 0 0 0 0 0 0 0 0 0
21 19 18 16 13 11 10 10 10 11 9 8 7 6 4 1 0 0 0 0 0 0 0 0 0 0 0 0 0 0 0 0 0 0 0 0 0 0 0 0 0 0 0
19 19 19 17 14 11 11 11 10 10 9 8 7 6 5 2 0 0 0 0 0 0 0 0 0 0 0 0 0 0 0 0 0 0 0 0 0 0 0 0 0 0 0
20 20 20 19 16 14 11 9 6 5 5 4 4 3 3 2 0 0 0 0 0 0 0 0 0 0 0 0 0 0 0 0 0 0 0 0 0 0 0 0 0 0 0
21 21 20 20 17 14 11 9 7 5 3 2 1 1 1 0 0 0 0 0 0 0 0 0 0 0 0 0 0 0 0 0 0 0 0 0 0 0 0 0 0 0 0
21 20 20 19 17 14 13 13 12 10 8 5 2 0 0 0 0 0 0 0 0 0 0 0 0 0 0 0 0 0 0 0 0 0 0 0 0 0 0 0 0 0 0
19 18 18 19 17 16 16 15 14 12 11 8 4 1 0 0 0 0 0 0 0 0 0 0 0 0 0 0 0 0 0 0 0 0 0 0 0 0 0 0 0 0 0
14 14 15 17 18 17 16 14 12 11 11 10 7 4 2 1 0 0 0 0 0 0 0 0 0 0 0 0 0 0 0 0 0 0 0 0 0 0 0 0 0 0 0
10 9 10 14 17 16 15 13 12 12 12 12 10 6 3 1 0 0 0 0 0 0 0 0 0 0 0 0 0 0 0 0 0 0 0 0 0 0 0 0 0 0 0
7 7 7 10 12 13 12 12 12 13 13 12 10 6 2 1 0 0 0 0 0 0 0 0 0 0 0 0 0 0 0 0 0 0 0 0 0 0 0 0 0 0 0
7 7 7 8 8 8 8 9 10 11 11 10 8 5 1 0 0 0 0 0 0 0 0 0 0 0 0 0 0 0 0 0 0 0 0 0 0 0 0 0 0 0 0
9 8 8 7 6 5 5 6 6 7 8 7 5 4 2 1 0 0 0 0 0 0 0 0 0 0 0 0 0 0 0 0 0 0 0 0 0 0 0 0 0 0 0
9 10 10 7 5 4 4 4 3 3 4 4 3 3 4 3 1 1 0 0 0 0 0 0 0 0 0 0 0 0 0 0 0 0 0 0 0 0 0 0 0 0 0
9 10 10 8 5 3 3 3 2 1 2 2 2 3 5 4 2 2 1 0 0 0 0 0 0 0 0 0 0 0 0 0 0 0 0 0 0 0 0 0 0 0 0

GEFSGL_con_prob3kmehi_252.txt.gz
EHI
21 19 16 13 11 9 9 9 11 14 16 16 14 11 6 4 3 4 5 4 4 5 4 2 2 2 3 3 3 3 4 3 1 1 2 2 1 1 1 2 2 1 0
22 20 17 17 16 14 11 11 13 14 14 14 13 11 8 5 5 5 5 5 5 4 3 3 2 2 3 2 3 3 4 4 2 2 2 1 1 2 2 2 1 0 0
23 22 22 22 22 18 15 15 16 16 14 13 13 13 11 9 8 7 6 6 6 4 2 2 2 2 2 3 4 4 4 4 4 4 4 3 2 2 2 2 0 0 0
22 24 26 27 25 20 18 18 18 17 16 14 15 17 16 14 11 9 8 8 7 4 2 1 1 1 2 3 4 5 4 3 3 4 4 3 1 1 2 1 1 1 1
25 27 28 27 25 23 22 22 20 18 17 18 19 21 20 17 13 9 7 7 7 5 3 2 1 0 1 1 2 4 3 2 1 1 2 1 0 0 1 1 1 1 2
31 30 28 26 26 26 25 24 23 20 20 23 24 23 21 16 10 6 5 6 6 5 3 3 1 0 0 0 0 1 1 0 0 0 0 0 0 0 0 0 0 1 1
32 30 29 30 32 31 29 27 26 25 25 26 26 23 20 15 8 4 3 5 6 4 3 3 2 1 1 0 0 0 0 0 0 0 0 0 0 0 0 0 0 0 0
32 31 32 35 38 38 36 33 32 32 32 31 28 25 21 14 7 2 2 4 5 5 4 4 3 3 2 1 0 0 0 0 0 0 0 0 0 0 0 0 0 0 0
37 36 35 37 40 42 42 40 39 39 38 35 31 27 23 14 6 1 1 3 4 4 4 3 3 2 2 1 0 0 0 0 0 0 0 0 0 0 0 0 0 0 0
41 40 39 38 40 43 45 44 43 41 38 35 31 28 23 15 6 1 1 2 3 3 3 2 1 1 1 0 0 0 0 0 0 0 0 0 0 0 0 0 0 0 0
43 42 41 40 41 43 45 45 41 37 34 32 30 27 22 15 7 2 1 2 3 3 2 1 0 0 0 0 0 0 0 0 0 0 0 0 0 0 0 0 0 0 0
47 45 43 42 41 41 43 42 36 32 29 28 27 23 17 13 8 3 1 2 3 4 3 1 0 0 0 0 0 0 0 0 0 0 0 0 0 0 0 0 0 0 0
50 48 46 43 41 41 40 37 33 29 26 24 21 16 12 11 9 5 2 1 2 3 2 1 0 0 0 0 0 0 0 0 0 0 0 0 0 0 0 0 0 0 0
49 49 48 45 43 41 38 34 31 28 25 22 19 15 12 13 11 8 5 3 2 2 1 0 0 0 0 0 0 0 0 0 0 0 0 0 0 0 0 0 0 0 0
45 46 46 45 43 40 36 30 25 23 19 17 18 16 15 13 10 7 6 4 2 1 1 1 1 1 0 0 0 0 0 0 0 0 0 0 0 0 0 0 0 0 0
41 41 42 43 43 41 36 28 20 14 9 8 10 11 10 8 5 3 2 2 1 1 1 2 2 2 1 0 0 0 0 0 0 0 0 0 0 0 0 1 1 1 1
38 37 37 39 40 38 34 28 21 12 6 3 3 3 3 2 1 0 0 0 0 0 1 2 3 2 1 0 0 0 0 0 0 0 0 0 1 1 1 2 3 3 3
34 34 34 35 34 34 32 28 23 17 11 8 4 2 1 1 0 0 0 0 0 0 1 2 2 2 1 0 1 1 1 2 1 0 1 1 2 2 2 3 4 4 4
31 31 32 32 31 30 29 25 22 20 17 15 11 6 2 1 0 0 0 0 1 1 1 1 2 2 2 2 2 3 3 3 2 2 2 3 3 3 3 2 3 4 4
28 26 28 29 29 29 28 25 21 19 19 18 17 13 7 3 2 2 1 1 1 2 3 3 4 4 5 5 4 4 5 4 4 3 4 4 3 3 2 1 2 3 4
22 22 21 23 25 26 27 25 22 19 18 18 18 15 9 6 6 6 5 3 2 3 6 7 7 6 6 6 6 6 6 6 5 5 5 4 3 2 1 1 2 3 2
18 17 16 17 19 20 21 22 20 18 16 15 16 13 9 7 8 8 7 6 5 7 10 11 9 6 6 6 6 6 6 6 6 6 5 4 3 2 1 1 2 2 1
15 15 14 14 16 15 15 16 17 16 15 14 13 11 8 7 8 8 8 8 9 10 10 10 7 5 4 5 6 6 6 6 6 5 5 4 3 2 1 0 1 1 0
13 13 13 13 13 12 11 11 12 13 13 13 12 10 8 7 7 8 9 9 10 10 8 7 6 4 3 3 3 4 3 3 3 3 3 2 2 1 0 0 0 0 0
11 12 12 10 10 9 7 6 8 9 10 11 11 9 8 7 8 9 10 10 9 9 7 7 7 6 3 2 2 2 1 1 1 1 1 1 1 0 0 0 0 0 0
10 11 10 8 7 7 5 4 5 7 8 8 9 9 7 6 7 9 11 10 9 9 8 8 8 6 4 2 1 2 1 0 0 0 1 1 0 0 0 0 0 0 0

GEFSGL_con_prob3kmehi_258.txt.gz
EHI
40 41 39 37 34 27 24 25 26 26 27 24 19 19 22 24 24 21 16 15 13 11 9 7 5 4 3 4 6 8 7 4 3 3 3 3 3 3 2 3 2 1 0
40 40 38 36 34 29 26 27 27 28 29 26 21 20 21 24 25 22 17 14 12 12 12 11 7 4 3 4 6 8 7 6 5 4 3 3 3 3 3 2 2 1 0
39 39 39 38 36 32 30 30 30 31 30 27 24 22 22 23 25 24 19 15 13 14 14 12 8 4 3 4 6 7 7 7 7 6 4 3 3 3 2 1 1 1 1
42 43 44 42 40 38 35 34 34 33 31 29 28 26 24 23 25 25 22 19 18 18 15 11 7 4 3 4 5 6 6 7 7 6 4 3 3 2 1 0 0 0 0
47 47 48 48 45 43 40 38 37 35 34 34 31 27 25 23 23 24 23 22 22 21 17 11 6 4 3 3 4 4 5 6 5 4 3 2 1 1 0 0 0 0 0
52 49 50 52 51 47 44 42 41 40 39 39 34 28 26 23 21 20 21 22 24 23 20 13 6 3 3 3 2 2 2 3 3 2 2 1 0 0 0 0 0 0 0
55 53 54 56 55 52 48 46 45 44 45 42 36 30 26 21 18 16 16 19 22 23 20 13 6 4 4 4 3 1 1 1 1 1 1 1 1 0 0 0 0 0 0
59 57 57 58 59 58 54 52 51 50 49 45 38 32 26 20 14 11 10 14 18 20 17 11 7 5 5 5 3 2 1 0 0 0 1 1 1 0 0 0 0 0 0
60 59 58 58 60 61 58 56 56 55 52 46 39 31 26 19 12 7 7 12 16 17 15 10 7 5 4 3 3 3 2 0 0 0 0 0 0 0 0 0 0 0 0
57 56 56 58 61 61 59 58 57 56 52 46 38 31 27 21 13 6 5 10 15 15 14 11 7 3 1 1 2 4 3 1 0 0 0 0 0 0 0 0 0 0 0
54 54 54 57 59 60 61 60 57 54 50 45 39 34 30 25 15 7 4 8 12 14 14 12 7 3 0 0 1 3 2 1 0 0 0 0 0 0 0 0 0 0 0
54 54 56 56 55 57 61 62 57 52 47 43 40 36 32 26 17 9 5 4 8 12 13 11 7 2 0 0 0 1 1 0 0 0 0 0 0 0 1 1 1 1 0
55 56 56 54 51 53 58 58 53 49 44 39 37 34 32 27 21 13 6 2 3 7 9 7 4 1 0 0 0 0 0 0 0 0 0 0 0 0 1 2 2 1 1
58 57 54 51 48 50 52 50 46 42 39 36 34 32 31 29 25 18 9 4 3 4 5 4 2 0 0 0 0 0 0 0 0 0 0 0 0 0 0 1 1 1 0
57 55 50 47 46 48 47 42 36 31 30 30 29 29 28 25 21 17 12 7 5 4 3 2 2 2 1 1 1 1 0 0 0 0 0 0 0 0 0 0 0 0 0
51 51 48 45 45 46 43 37 28 21 17 17 18 20 20 16 11 9 8 6 5 3 3 3 4 5 5 3 2 2 1 1 0 0 1 1 0 0 0 0 0 0 0
47 47 46 45 45 43 41 37 31 22 15 10 7 7 8 6 3 1 2 2 1 2 4 6 7 8 8 5 4 4 4 3 2 1 1 2 1 1 1 0 0 0 1
45 44 44 45 46 44 41 40 38 33 27 19 9 4 2 1 0 0 0 0 1 3 5 7 8 9 8 7 6 7 8 7 5 3 3 3 3 2 2 1 1 1 2
42 41 41 42 43 41 39 38 39 38 35 28 19 10 4 1 1 1 0 1 4 6 7 8 8 8 8 8 8 8 9 9 8 6 5 5 4 3 3 2 2 3 3
36 33 33 35 35 35 34 35 37 37 35 30 24 16 8 4 3 3 1 2 5 9 10 10 9 9 9 8 9 9 9 9 9 8 7 6 5 4 3 3 3 2 2
26 23 22 25 27 28 28 30 32 33 32 28 25 18 10 7 9 8 5 4 6 10 12 12 10 10 10 10 10 10 10 10 9 9 8 7 6 5 5 3 1 1 1
19 16 14 17 20 21 20 21 24 27 27 24 22 16 10 11 14 14 11 9 9 11 12 11 10 9 10 11 12 12 12 11 11 10 9 8 7 6 5 3 1 0 0
17 14 11 12 14 14 14 15 17 20 22 21 19 15 11 13 16 17 15 14 13 12 12 11 10 9 11 12 13 12 11 11 12 11 10 9 7 5 4 1 0 0 0
14 12 10 9 10 11 11 12 13 15 18 18 17 15 14 15 16 16 15 14 13 12 12 11 10 11 11 11 10 8 7 8 9 10 10 9 7 5 3 1 0 0 0
11 10 9 8 9 9 9 9 10 13 14 15 14 15 16 14 14 13 12 11 11 11 11 10 10 10 10 8 7 5 3 3 4 5 7 8 7 5 3 2 1 0 0
8 9 9 8 8 8 7 7 8 11 12 12 13 14 14 12 11 10 10 10 10 9 8 8 10 9 7 7 6 4 1 0 1 2 4 7 7 5 4 2 1 0 0

GEFSGL_con_prob3kmehi_264.txt.gz
EHI
24 24 21 15 11 9 7 6 5 5 6 7 7 7 7 7 6 5 4 3 3 2 3 3 1 0 0 0 0 0 0 0 0 0 0 0 0 0 0 0 0 0 0
23 24 22 18 14 11 8 7 7 8 9 9 9 10 11 10 9 6 4 3 3 3 4 3 2 1 0 0 0 0 0 0 0 0 0 0 0 0 0 0 0 0 0
22 23 22 20 17 13 10 10 11 12 13 12 12 13 14 14 12 10 7 5 5 5 4 4 4 2 1 0 0 0 0 0 0 0 0 0 0 0 0 0 0 0 0
20 20 21 20 17 14 13 14 17 18 17 15 14 13 14 14 14 12 11 9 8 7 6 6 5 4 2 1 0 0 0 0 0 0 0 0 0 0 0 0 0 0 0
19 18 18 17 16 15 15 18 21 22 20 17 14 13 13 14 14 14 14 13 13 12 10 9 7 6 3 1 0 1 1 1 0 0 0 0 0 0 0 0 0 0 0
18 16 14 14 16 17 19 21 23 23 22 19 16 13 12 12 13 13 14 15 15 14 14 11 9 7 5 1 0 1 2 1 0 0 0 0 0 0 0 0 0 0 0
19 17 15 15 17 20 22 23 23 23 23 20 16 14 12 10 10 10 11 13 14 14 13 11 9 7 5 2 0 1 1 1 0 0 0 0 0 0 0 0 0 0 0
22 21 22 22 21 22 24 25 23 23 23 20 17 16 13 9 7 5 6 10 13 12 10 8 6 5 4 2 0 0 0 0 0 0 0 0 0 0 0 0 0 0 0
25 26 30 31 29 28 29 28 25 23 22 18 17 17 15 12 7 4 6 11 14 12 8 5 4 4 3 1 0 0 0 0 0 0 0 0 0 0 0 0 0 0 0
27 29 34 37 36 35 35 32 28 25 22 18 16 17 17 15 11 6 7 12 14 11 7 5 4 3 2 1 0 0 0 0 0 0 0 0 0 0 0 0 0 0 0
27 30 34 37 38 38 37 34 30 26 21 16 15 15 16 16 13 7 5 8 11 9 7 5 4 3 2 1 0 0 0 0 0 0 0 0 0 0 0 0 0 0 0
27 30 33 35 37 37 35 32 30 25 19 14 13 14 15 15 11 6 4 4 6 8 7 5 4 3 1 0 0 0 0 0 0 0 0 0 0 0 0 0 0 0 0
30 32 34 34 35 34 31 29 27 24 19 15 13 14 14 13 10 6 3 2 3 5 5 5 4 2 1 0 0 0 0 0 0 0 0 0 0 0 0 0 0 0 0
35 35 35 34 32 31 28 26 25 24 21 17 15 14 13 12 10 7 4 2 2 2 3 3 2 1 0 0 0 0 0 0 0 0 0 0 0 0 0 0 0 0 0
39 38 37 35 32 30 27 24 23 22 19 16 14 12 12 11 9 6 3 1 1 1 2 2 1 0 0 1 2 1 0 0 0 0 0 0 0 0 0 0 0 0 0
40 39 38 37 34 31 27 23 21 18 14 11 9 8 8 8 5 2 1 0 0 1 1 2 1 1 1 2 3 2 1 0 0 0 0 0 0 0 0 0 0 0 0
39 39 39 38 35 31 27 24 21 17 12 7 4 3 3 3 2 0 0 0 0 0 1 2 3 2 1 1 2 2 1 0 0 0 0 0 0 0 0 0 0 0 0
38 39 39 38 36 32 28 26 24 21 17 11 5 1 0 0 0 0 0 0 0 0 1 2 3 3 1 1 1 1 0 0 1 1 1 0 0 0 0 0 0 0 0
34 36 36 36 34 32 29 27 25 23 20 16 10 4 2 1 0 0 0 0 0 0 0 1 3 3 2 2 2 2 1 1 2 2 1 0 0 0 0 0 0 0 0
27 28 29 30 29 28 26 24 22 21 19 16 12 8 5 3 1 1 1 1 1 0 0 1 2 2 2 1 1 2 1 1 2 2 1 0 0 0 0 0 0 0 0
22 20 20 21 22 21 19 18 18 17 17 15 13 10 7 5 3 2 2 2 2 1 0 0 1 1 1 0 1 1 1 1 1 1 0 0 0 0 0 0 0 0 0
17 15 14 15 15 14 12 12 12 13 13 13 12 10 7 5 4 3 3 3 2 1 0 1 1 1 1 1 1 2 2 1 0 0 0 0 0 0 0 0 0 0 0
12 11 10 10 10 10 9 8 8 8 8 9 10 9 7 5 4 3 3 2 2 1 0 1 2 2 1 1 1 1 1 1 0 0 0 0 0 0 0 0 0 0 0
7 7 6 6 7 7 7 6 6 6 6 7 7 7 7 6 4 2 1 1 1 0 0 1 1 1 1 0 0 0 0 0 0 0 0 0 0 0 0 0 0 0 0
5 4 4 5 6 6 5 5 6 6 6 6 6 6 6 6 4 2 0 0 0 0 0 0 0 0 0 0 0 0 0 0 0 0 0 0 0 0 0 0 0 0 0
3 3 4 5 6 6 4 4 4 4 4 5 6 6 6 5 3 1 0 0 0 0 0 0 0 0 0 0 0 0 0 0 0 0 0 0 0 0 0 0 0 0 0

GEFSGL_con_prob3kmehi_270.txt.gz
EHI
11 10 8 7 5 4 3 2 1 2 3 3 3 3 3 3 3 3 3 3 3 3 3 3 1 0 0 0 0 0 0 0 0 0 0 0 0 0 0 0 0 0 0
11 9 7 6 4 4 4 3 3 3 4 4 4 4 4 4 3 3 3 3 3 3 3 3 2 1 0 0 0 0 0 0 0 0 0 0 0 0 0 0 0 0 0
12 10 7 5 4 4 5 5 4 4 5 5 6 6 6 5 4 4 4 4 3 3 3 3 3 3 2 1 1 1 0 0 0 0 0 0 0 0 0 0 0 0 0
14 13 8 5 5 6 6 6 6 5 5 5 6 7 8 7 5 5 6 6 5 4 4 5 5 5 5 4 3 2 1 0 0 0 0 0 0 0 0 0 0 0 0
15 13 10 6 5 5 6 6 6 5 5 4 4 5 6 6 6 6 7 8 7 7 7 9 10 8 6 4 3 3 2 2 1 1 1 1 1 0 0 0 0 0 0
11 10 9 7 5 5 5 6 6 6 6 5 5 5 5 5 5 5 6 7 8 9 9 10 11 10 6 4 3 3 3 4 4 3 3 2 1 0 0 0 0 0 0
8 8 9 9 6 5 5 5 6 6 7 7 7 7 6 5 4 4 3 4 6 7 6 7 9 9 6 4 3 2 3 4 4 5 4 3 1 0 0 0 0 0 0
9 8 9 9 7 5 5 5 5 6 7 8 8 8 7 5 3 2 2 2 3 4 4 4 7 7 5 3 3 3 3 3 3 3 3 2 1 0 0 0 0 0 0
9 9 10 11 10 8 6 4 5 7 8 7 7 7 6 4 2 1 1 2 3 3 3 4 5 5 3 2 3 3 3 3 3 2 1 1 0 0 0 0 0 0 0
9 11 12 14 14 12 9 8 8 9 8 5 4 6 6 4 1 0 1 3 4 5 4 4 3 3 1 1 2 3 3 3 3 2 1 0 0 0 0 0 0 0 0
12 12 13 15 15 15 15 15 14 11 7 4 4 5 6 4 2 0 1 3 4 5 4 5 4 1 0 0 1 2 2 3 3 3 2 1 0 0 0 0 0 0 0
13 13 13 14 14 15 18 20 19 15 10 8 8 8 7 5 3 1 0 1 2 3 4 5 4 1 0 0 0 1 1 1 3 3 2 1 0 0 0 0 0 0 0
14 14 14 14 14 17 19 21 21 20 17 15 15 13 11 9 6 2 0 0 0 1 2 3 2 1 0 0 0 0 0 1 2 3 2 1 0 0 0 0 0 0 0
15 15 16 17 18 20 21 22 23 24 23 22 20 17 15 13 10 6 3 1 0 0 1 1 1 0 0 0 0 1 1 1 1 2 1 0 0 0 0 0 0 0 0
17 17 17 19 22 23 23 22 22 23 22 20 19 17 16 14 11 8 5 3 1 0 0 0 1 1 1 1 1 3 3 1 0 0 0 0 0 0 0 0 0 0 0
17 16 17 21 24 25 24 22 20 18 14 11 11 12 12 10 8 5 3 2 1 0 0 1 2 2 2 2 2 4 4 1 0 0 0 0 0 0 0 0 0 0 0
14 13 16 21 25 25 24 24 22 18 11 6 4 4 5 5 3 1 1 1 0 0 0 1 2 3 3 3 3 3 4 2 0 0 0 0 0 0 0 0 0 0 0
13 13 16 22 24 24 24 24 25 21 15 10 6 3 2 1 0 0 0 0 0 0 0 0 1 2 3 3 4 5 6 5 2 0 0 0 0 0 0 0 0 0 0
16 17 18 21 22 22 23 24 24 22 17 14 11 7 3 1 1 1 0 0 0 0 0 0 1 2 4 4 5 7 8 6 3 0 0 0 0 0 0 0 0 0 0
17 17 17 18 19 20 20 21 20 18 15 13 11 8 5 3 3 3 2 1 1 1 1 2 2 3 4 4 4 6 6 5 2 1 1 0 0 0 0 0 0 0 0
14 14 13 14 16 16 15 14 14 13 12 12 10 8 5 3 4 4 4 4 3 3 4 5 5 5 4 3 3 4 3 2 1 1 1 0 0 0 0 0 0 0 0
10 11 11 11 12 11 9 8 8 9 10 10 9 7 5 4 4 5 6 6 6 6 6 6 6 6 5 4 3 2 1 0 0 1 1 0 0 0 0 0 0 0 0
8 8 8 8 8 7 5 5 5 6 7 7 7 6 4 4 5 6 6 6 7 7 7 6 6 6 5 3 2 1 0 0 0 0 0 0 0 0 0 0 0 0 0
6 5 4 4 4 3 3 3 3 4 4 4 4 4 2 2 4 5 5 5 5 6 6 4 3 4 4 3 2 1 0 0 0 0 0 0 0 0 0 0 0 0 0
2 1 1 1 1 1 1 1 1 2 2 3 3 2 1 1 1 2 2 2 2 3 3 2 2 3 3 3 2 1 0 0 0 0 0 0 0 0 0 0 0 0 0
0 0 0 0 0 0 0 0 0 0 1 2 2 2 1 0 0 0 0 0 1 2 2 2 1 2 3 2 1 0 0 0 0 0 0 0 0 0 0 0 0 0 0

GEFSGL_con_prob3kmehi_276.txt.gz
EHI
10 13 16 17 14 10 9 8 8 8 7 5 4 3 3 4 6 8 9 11 13 15 16 17 19 19 17 16 15 14 13 12 11 10 10 9 7 6 5 5 3 1 0
10 12 14 16 13 11 9 8 8 8 7 4 4 4 4 5 7 11 13 14 15 16 16 17 18 19 18 18 17 16 14 13 11 10 10 9 7 5 4 4 3 2 1
10 11 13 13 13 12 11 11 12 12 9 7 6 6 7 7 10 14 17 18 17 15 15 16 17 18 19 19 19 18 16 15 14 12 10 8 7 5 4 3 4 4 4
13 13 12 11 11 13 14 16 18 17 15 12 10 11 11 10 12 16 19 20 19 16 14 14 15 15 16 17 17 17 16 17 17 14 11 8 6 5 4 3 4 5 6
17 16 14 12 13 14 16 20 22 21 18 15 13 14 14 13 13 15 18 20 20 19 17 14 13 12 11 10 11 11 13 16 17 15 12 9 7 6 4 4 4 5 6
20 19 18 17 17 16 16 20 22 21 17 14 13 13 13 13 12 11 13 16 18 18 16 14 12 11 8 7 5 5 7 11 13 13 12 9 8 7 6 5 5 5 6
22 23 23 22 20 17 16 17 20 21 19 17 15 14 15 14 10 7 8 12 15 15 14 13 12 11 10 9 6 4 5 6 7 9 10 9 8 7 6 5 6 6 5
26 26 26 25 22 20 18 19 21 23 24 23 23 21 20 16 10 5 5 9 12 13 13 13 13 11 10 10 9 8 7 6 5 6 7 7 6 6 6 5 5 5 5
28 27 26 25 24 24 24 25 29 32 32 29 27 26 24 18 10 3 4 10 15 16 16 15 13 11 9 7 8 9 8 7 4 3 3 4 4 4 4 4 4 4 4
29 27 25 23 23 25 27 32 36 38 36 30 27 28 27 22 13 4 4 14 20 21 20 16 12 9 5 3 4 6 7 6 5 3 3 4 4 4 3 3 3 3 3
30 28 25 22 22 23 29 35 38 37 33 30 31 32 31 28 18 6 5 13 20 21 20 16 11 6 2 1 2 4 5 6 6 6 7 7 7 6 6 5 4 4 4
29 29 28 25 23 24 29 34 35 34 31 31 33 34 33 31 23 10 4 6 12 17 17 14 8 3 0 0 1 2 3 4 6 7 9 9 9 9 10 10 9 8 7
29 30 30 30 29 27 30 33 34 33 32 31 31 31 31 31 26 15 6 2 4 10 13 10 5 1 0 0 0 1 1 3 5 8 9 9 9 10 12 13 12 9 8
31 30 31 32 31 31 32 32 32 31 30 28 27 26 26 29 27 21 14 8 7 8 8 6 3 2 2 2 2 3 3 4 6 8 10 10 9 10 12 12 10 7 5
33 32 31 30 31 33 33 29 26 24 22 22 21 20 22 23 23 20 17 15 11 9 7 6 5 6 6 6 7 8 8 8 8 10 12 12 11 11 11 10 8 6 4
33 33 31 30 31 32 30 25 19 15 12 11 11 14 16 15 12 10 10 9 7 6 6 9 10 10 11 11 11 12 13 13 13 12 13 14 13 13 13 11 8 6 5
30 30 29 29 29 28 27 24 20 15 11 8 6 7 8 6 3 2 2 1 1 2 5 10 12 13 15 15 15 14 15 16 15 13 12 12 12 13 13 10 7 5 4
24 25 25 26 25 25 25 24 22 19 17 14 8 4 2 1 0 0 0 1 2 4 6 9 12 14 16 17 16 15 16 16 15 12 12 11 11 11 10 7 5 4 3
21 21 21 22 22 22 21 20 20 20 20 18 14 8 3 1 1 0 1 4 8 9 9 11 13 14 15 16 15 15 14 15 14 13 12 12 11 10 8 5 3 3 3
18 16 17 19 19 18 18 17 18 19 19 17 16 13 8 5 5 4 4 8 13 14 13 11 12 12 13 13 13 12 11 12 13 14 13 12 11 10 7 4 3 3 4
14 13 13 16 17 16 16 16 17 19 19 17 16 13 10 9 11 9 8 10 13 14 12 8 8 10 10 10 10 10 9 10 11 13 14 12 11 9 7 5 3 3 4
12 12 13 14 15 17 17 17 17 18 18 17 15 12 9 11 12 12 11 10 11 11 10 7 6 8 8 7 6 6 7 7 8 10 11 11 9 7 6 4 3 2 1
12 12 12 12 14 17 17 16 15 15 16 16 14 12 10 10 11 11 10 10 9 7 7 7 7 6 6 4 2 2 2 4 5 6 6 6 5 5 4 3 2 0 0
11 12 12 13 13 15 15 13 12 12 13 13 12 11 9 8 8 8 7 7 6 5 4 5 5 4 3 2 1 0 0 1 2 2 2 2 2 2 2 2 1 0 0
13 13 13 13 12 12 11 10 9 9 10 9 8 7 8 8 6 4 3 4 4 3 3 3 2 2 1 0 0 0 0 0 1 1 1 1 1 0 1 1 0 0 0
14 13 13 12 11 9 8 8 8 7 6 6 5 5 7 8 6 2 1 2 3 3 3 2 1 1 0 0 0 0 0 0 0 0 0 0 0 0 0 0 0 0 0

GEFSGL_con_prob3kmehi_282.txt.gz
EHI
44 41 41 41 35 26 19 17 16 15 16 17 18 19 20 21 20 17 14 13 14 14 13 16 18 18 19 20 22 23 24 23 20 18 19 18 15 11 7 4 4 3 2
44 44 43 41 34 26 20 17 17 17 18 19 20 20 20 21 21 19 17 15 14 14 14 16 19 20 22 23 22 22 22 21 20 19 19 18 15 11 8 5 4 3 3
45 46 45 42 36 29 22 18 18 20 21 22 22 20 19 19 21 21 19 17 15 15 16 18 21 23 24 24 21 20 19 19 19 19 19 19 16 11 8 6 5 4 4
48 48 46 45 43 37 28 21 19 21 23 22 22 23 21 20 22 23 22 20 19 18 19 21 22 22 23 21 18 16 16 18 20 20 19 19 16 12 9 6 6 5 4
51 50 49 49 48 44 35 27 22 22 22 23 23 25 25 22 20 21 23 25 24 22 23 24 22 19 19 17 13 12 14 17 19 19 18 18 17 15 11 8 6 4 4
50 49 49 50 50 46 40 35 30 27 26 27 27 28 26 21 17 18 23 28 29 27 27 26 21 17 15 13 11 10 11 12 13 14 15 16 16 16 14 11 7 4 3
50 48 48 50 50 46 41 39 38 36 34 34 35 35 31 23 15 14 20 27 30 28 27 25 21 17 14 14 13 11 9 8 7 8 10 13 14 13 13 11 7 4 3
51 50 49 50 50 47 42 40 42 42 42 41 41 41 38 28 16 10 13 21 26 26 24 22 21 19 16 15 14 13 12 9 5 4 7 10 10 9 8 7 6 4 3
52 52 51 50 50 47 42 40 42 44 44 41 40 42 41 34 20 9 9 18 23 23 23 21 21 19 16 13 13 15 15 12 7 4 4 6 7 5 4 4 3 2 1
53 53 53 52 49 45 42 40 42 43 41 38 37 39 40 35 23 11 10 19 24 24 24 22 20 17 12 9 11 14 16 15 11 6 4 4 5 5 4 4 3 1 0
51 53 54 51 45 42 42 43 44 44 42 38 38 38 39 35 25 14 11 17 24 26 25 23 19 13 7 5 7 11 12 12 11 8 6 6 7 8 8 7 6 4 2
51 52 53 50 43 41 44 46 47 48 46 43 41 40 38 34 27 17 10 10 18 24 25 23 17 9 3 1 3 5 6 7 8 8 7 8 10 13 15 14 11 8 7
51 51 51 48 45 44 46 47 47 47 47 45 43 41 37 34 30 22 12 6 8 15 20 18 11 4 1 0 1 2 3 4 6 7 8 9 10 14 18 18 15 13 13
51 50 48 45 43 44 45 43 42 43 43 42 42 40 37 33 30 25 17 10 8 10 12 11 8 4 3 3 3 3 4 5 5 7 8 9 12 15 18 17 15 14 13
45 44 41 37 36 39 38 35 33 33 33 32 33 33 30 25 23 21 20 17 14 12 10 11 11 10 10 9 9 9 9 9 8 8 9 11 14 17 17 15 14 13 12
36 33 31 29 30 31 30 26 22 19 16 14 16 18 16 12 10 10 12 14 12 11 11 13 16 16 15 14 14 15 15 15 13 13 14 15 17 17 16 15 14 13 11
29 25 23 23 24 25 26 24 19 13 8 5 4 4 5 4 2 2 3 4 4 6 10 14 16 16 14 14 15 16 17 18 18 19 20 19 18 17 16 14 14 13 11
23 20 18 18 18 20 25 27 24 18 13 8 4 2 1 1 0 0 1 2 3 7 12 16 16 15 14 14 14 15 18 20 21 22 22 21 19 18 16 14 13 11 10
17 16 14 14 13 16 23 26 25 21 17 13 9 5 1 0 0 0 2 6 9 12 16 17 17 17 17 15 15 16 19 21 21 21 20 18 17 16 14 13 10 8 7
16 14 12 11 12 15 21 24 23 20 17 14 11 7 3 1 2 1 4 9 13 15 16 17 17 18 17 15 14 16 17 17 17 16 15 14 13 13 12 11 8 7 7
13 12 11 11 11 14 19 22 21 18 15 12 9 5 3 5 6 5 6 9 13 14 15 15 15 16 15 12 11 12 14 13 13 12 11 10 10 10 10 9 8 7 7
11 11 10 10 11 12 15 18 18 15 13 11 8 4 4 9 11 10 10 11 13 13 13 13 14 14 12 10 8 9 11 11 11 11 10 8 8 9 8 8 7 6 6
11 10 9 10 11 10 11 11 12 13 12 11 11 9 8 11 14 13 12 13 13 11 11 12 11 10 8 7 7 8 8 8 9 9 7 6 6 6 6 6 5 4 4
9 7 7 8 10 10 9 8 8 11 13 13 14 13 11 12 13 12 10 10 10 9 8 9 8 6 4 5 6 5 5 4 4 4 3 3 3 3 3 3 2 1 1
6 5 5 6 7 8 9 9 9 11 13 14 14 13 11 10 10 8 6 6 7 7 6 6 5 4 3 3 3 2 1 1 1 1 1 1 1 1 1 1 0 0 0
5 5 4 4 4 6 9 12 12 12 13 13 12 11 9 7 6 6 5 5 6 7 7 6 5 4 3 3 1 0 0 0 0 0 0 0 0 0 0 0 0 0 0

GEFSGL_con_prob3kmehi_288.txt.gz
EHI
25 22 18 15 13 10 7 5 2 1 1 2 3 5 6 4 3 3 3 3 2 3 4 6 8 9 10 10 10 9 8 7 6 4 2 1 0 0 0 0 0 0 0
26 23 18 15 12 10 8 7 5 3 2 1 2 5 6 4 3 3 3 3 3 3 5 7 9 10 10 10 11 10 9 8 7 4 2 1 0 0 0 0 0 0 0
25 24 19 14 11 10 10 9 7 4 3 1 2 5 6 5 4 4 4 5 5 5 7 8 9 10 10 11 12 12 10 9 8 5 2 0 0 0 0 0 0 0 0
27 25 22 17 13 11 10 10 8 5 4 3 5 7 8 7 6 6 7 7 7 7 8 8 8 9 10 12 13 11 9 8 8 6 3 1 0 0 0 0 0 0 0
29 27 25 21 17 14 12 11 10 8 7 8 9 10 9 8 7 7 8 9 9 8 9 9 8 8 9 11 10 8 7 7 7 5 3 2 1 1 1 0 0 0 0
30 29 27 26 23 19 15 13 13 13 11 12 13 11 9 7 7 7 8 10 11 11 10 10 9 9 8 7 6 5 5 6 6 5 4 3 3 2 2 1 0 0 0
31 30 30 29 26 23 19 18 18 19 17 16 15 12 9 8 7 6 6 8 9 10 10 10 10 9 8 6 4 3 3 4 6 6 5 4 3 3 3 2 1 0 0
30 29 29 29 27 26 23 22 23 23 22 20 18 15 12 11 9 6 4 5 6 7 9 10 9 7 6 5 4 3 4 4 4 5 5 5 4 3 3 3 1 0 0
27 26 26 27 26 26 25 24 24 26 25 24 23 20 16 13 10 6 3 3 4 5 8 10 9 6 4 2 2 3 3 4 3 3 3 4 3 2 3 3 2 1 0
25 24 24 25 25 24 24 24 25 26 26 25 24 21 17 15 12 6 3 5 6 7 9 10 9 7 4 1 1 1 1 2 3 3 3 2 2 1 1 2 2 1 0
25 24 24 24 23 22 22 22 24 25 26 25 23 18 15 13 12 7 4 5 7 10 12 12 10 7 4 1 0 0 0 1 2 3 4 4 3 2 2 2 1 0 0
26 24 22 21 21 20 19 20 21 23 24 23 20 15 12 12 11 8 3 2 5 10 14 15 11 7 2 0 0 0 0 0 1 2 4 5 5 4 3 3 2 1 0
25 22 19 19 19 18 17 18 20 22 22 21 18 15 14 13 12 9 4 2 2 6 11 12 9 4 1 0 0 0 0 0 0 1 3 5 5 4 4 3 3 2 1
23 19 16 16 16 16 15 15 15 17 18 18 17 17 15 13 12 11 9 6 4 5 7 7 4 1 0 0 1 1 1 1 0 0 2 4 4 3 3 3 3 3 3
21 17 14 14 14 14 13 11 10 10 12 13 14 15 14 12 11 10 10 9 8 7 5 3 1 0 0 1 2 2 2 2 1 0 0 2 3 3 3 3 3 3 3
18 14 12 14 15 14 11 9 8 7 6 6 8 10 10 9 7 5 5 6 6 5 4 4 3 3 2 2 2 2 3 3 2 1 1 1 2 3 3 3 3 3 3
13 12 11 14 16 15 12 10 8 6 4 3 3 3 5 5 3 1 0 1 2 1 2 6 8 7 5 3 2 2 1 2 3 3 2 1 2 2 3 3 3 3 3
9 9 10 12 14 14 13 11 9 7 6 4 2 1 1 1 1 0 0 0 0 1 2 6 9 9 6 5 5 3 1 1 3 3 3 2 2 1 1 2 3 3 3
7 7 8 9 10 12 12 11 9 7 7 6 3 2 1 0 0 0 0 1 2 3 3 4 6 8 7 6 6 5 2 1 3 3 3 2 1 0 0 1 1 3 3
7 7 7 7 8 10 11 9 6 5 5 5 4 3 1 0 0 0 0 1 4 5 4 4 5 7 7 6 6 6 4 2 2 3 3 2 1 0 0 0 1 2 3
8 7 7 6 7 7 8 7 4 3 3 4 4 3 2 1 0 0 0 1 4 5 4 4 5 6 7 7 7 6 5 3 2 2 3 2 1 0 0 0 0 1 2
10 9 7 6 6 6 5 5 4 3 3 3 4 3 1 1 1 1 1 1 2 3 3 3 3 4 5 7 8 7 5 3 2 2 2 2 1 0 0 0 0 0 1
11 10 8 7 6 6 5 4 3 3 3 3 3 2 1 0 1 2 2 1 1 2 2 2 2 2 3 4 6 6 5 4 3 2 1 1 0 0 0 0 0 0 0
11 10 9 7 6 5 5 3 2 2 3 3 4 3 1 1 1 2 2 1 0 1 1 1 1 2 3 3 3 3 3 3 2 1 0 0 0 0 0 0 0 0 0
9 9 8 6 4 4 4 3 1 2 3 4 4 3 2 1 1 2 2 1 1 1 1 2 2 2 3 3 2 1 1 1 1 0 0 0 0 0 0 0 0 0 0
8 8 6 4 4 3 3 2 1 2 4 4 4 4 3 1 1 2 2 2 2 2 2 3 3 2 1 1 1 0 0 0 0 0 0 0 0 0 0 0 0 0 0

GEFSGL_con_prob3kmehi_294.txt.gz
EHI
10 9 7 5 2 0 1 1 1 1 0 0 0 0 0 0 0 0 0 0 0 0 0 0 0 1 3 7 9 11 12 11 9 8 6 3 1 0 0 0 0 0 0
12 11 9 6 4 1 0 1 1 1 1 0 0 0 0 0 0 0 0 0 0 0 0 0 1 3 5 7 8 10 10 10 9 8 7 4 1 0 0 0 0 0 0
13 12 10 9 7 4 1 1 1 2 1 1 1 1 0 0 0 0 0 0 0 1 1 1 3 7 9 9 9 9 9 8 8 8 7 4 2 1 0 0 0 0 0
13 13 12 11 9 6 4 3 2 2 2 1 1 1 0 0 0 0 1 1 2 3 3 3 5 9 11 11 11 11 10 9 8 7 5 3 2 2 1 0 0 0 0
14 13 12 11 9 7 5 4 4 4 4 3 3 1 0 0 0 0 1 3 6 7 6 6 6 8 9 9 10 10 10 11 9 6 3 1 1 2 1 0 0 0 0
14 13 12 11 9 8 6 5 5 6 6 6 5 3 2 0 0 0 1 4 8 9 9 9 9 8 7 7 7 7 7 8 9 7 3 0 0 1 1 0 0 0 0
14 14 13 11 9 9 8 7 6 7 8 8 7 7 5 2 0 0 0 3 7 10 11 12 12 10 8 8 8 8 6 5 6 5 3 1 1 0 0 0 0 0 0
16 16 15 13 11 10 11 10 9 9 9 8 8 9 9 5 1 0 0 2 6 10 13 15 14 12 10 9 9 8 7 4 2 2 2 2 1 0 0 0 0 0 0
18 18 17 16 13 11 12 12 12 11 10 9 8 9 10 8 3 0 0 3 6 10 15 16 14 11 9 7 6 7 7 5 2 1 1 1 1 0 0 0 0 0 0
18 19 19 18 17 15 14 14 14 14 13 11 10 10 10 8 4 1 1 4 8 11 13 14 11 8 5 4 4 5 6 5 4 2 1 1 0 1 1 0 0 0 0
17 19 20 19 18 17 16 16 17 17 16 13 12 12 11 8 4 1 1 4 7 9 11 12 9 4 2 1 2 3 4 5 4 3 2 2 1 2 2 1 0 0 1
15 17 19 18 16 16 16 18 19 19 18 16 14 12 11 8 4 1 0 2 3 6 10 11 7 2 0 0 0 1 1 2 3 2 2 2 2 2 2 2 1 1 1
13 15 18 17 14 13 15 17 19 20 20 18 15 12 10 8 5 2 1 0 0 2 6 7 4 1 0 0 0 0 0 1 2 2 1 1 1 2 3 2 2 2 2
12 15 17 15 12 11 13 16 19 20 21 20 17 14 11 10 7 5 2 1 1 1 2 2 1 1 0 1 1 2 1 2 4 4 2 1 1 2 2 2 2 2 2
14 17 17 15 12 11 11 12 14 15 15 15 13 13 12 9 7 4 2 2 2 2 1 0 1 1 2 3 4 5 4 4 5 5 3 2 2 1 1 1 2 2 1
15 16 16 14 11 10 9 8 6 6 5 5 5 7 7 5 2 1 1 1 1 1 1 1 1 2 4 6 7 7 6 5 6 5 4 3 3 1 0 0 1 1 0
13 13 12 10 8 8 8 7 5 3 2 1 1 2 2 1 0 0 0 0 0 0 0 1 2 3 5 8 10 10 8 6 5 4 4 3 3 2 1 0 0 0 0
11 10 8 5 3 4 6 7 7 6 5 4 3 1 0 0 0 0 0 0 0 0 0 1 2 3 6 8 10 11 9 7 4 2 2 2 2 2 1 0 0 0 0
8 7 5 2 1 1 3 5 6 6 6 6 5 3 1 0 0 0 0 0 0 0 0 0 1 2 5 7 8 8 8 7 4 1 1 1 1 1 0 0 0 0 0
5 4 2 1 0 0 1 3 4 4 4 5 5 4 2 1 1 1 0 0 0 0 0 0 1 1 3 6 7 6 5 4 3 2 1 0 0 0 0 0 0 0 0
4 2 1 0 0 0 0 2 3 3 3 4 4 3 2 1 2 1 1 1 0 0 0 1 2 2 2 4 6 5 3 2 1 2 2 1 0 0 0 0 0 0 0
6 4 2 0 0 0 0 2 3 3 3 3 2 1 1 1 1 1 2 2 1 1 1 1 2 2 3 4 5 6 5 3 2 2 3 3 1 0 0 0 0 0 0
6 5 3 2 2 1 1 2 3 4 2 1 1 0 0 1 2 1 2 3 3 2 2 2 1 1 2 4 6 7 6 5 4 4 4 4 2 0 0 0 0 0 0
2 3 3 3 3 3 2 3 4 3 1 0 0 0 0 1 2 2 2 3 3 3 3 2 1 0 1 3 5 6 5 5 4 3 4 4 2 0 0 0 0 0 0
1 2 3 3 4 4 4 3 2 1 0 0 0 0 0 0 1 1 2 3 3 3 3 2 1 0 0 1 3 4 3 2 1 1 2 2 1 0 0 0 0 0 0
0 1 3 4 5 5 4 2 0 0 0 0 0 0 0 0 0 0 1 3 3 3 3 2 1 0 0 0 1 2 1 0 0 0 1 0 0 0 0 0 0 0 0